Temperature
25 25 25 26 27 27 27 27 27 28 29 28 28 26 25 26 26 25 24 22 21 19 17 17 16 16 15 15 16 16 16 17 17 17 17 17 16 16 16 16 16 16 16 16
25 25 27 28 28 28 28 27 27 27 29 28 27 27 27 27 26 25 24 22 20 19 17 16 16 15 15 15 15 15 15 16 16 16 16 16 16 16 16 16 16 16 16 16
24 26 28 27 27 27 27 27 27 26 27 28 27 26 25 25 25 24 23 22 20 19 17 16 15 14 14 14 14 14 15 15 15 15 15 15 15 15 15 15 15 15 15 16
25 27 27 27 27 27 26 27 27 27 26 26 26 23 23 22 23 23 22 21 20 18 17 16 15 14 13 13 13 14 14 14 14 15 15 15 15 15 15 15 15 15 15 15
26 27 27 26 27 27 26 28 27 27 27 26 25 23 21 21 21 22 22 20 19 18 16 15 14 13 13 12 13 13 13 13 13 14 14 14 14 14 14 14 14 14 14 14
27 28 28 27 28 28 27 27 27 26 26 23 23 23 21 20 20 21 21 20 18 17 16 15 14 13 12 12 12 12 12 13 13 13 13 13 13 13 13 13 13 13 13 13
26 27 28 28 27 27 27 25 23 22 21 21 22 22 22 22 22 21 20 19 18 17 15 14 14 13 12 11 11 11 11 12 12 12 12 12 12 12 12 12 12 12 13 13
24 24 26 27 26 26 25 25 22 20 20 20 20 21 21 24 23 22 20 19 17 16 15 14 13 12 11 11 11 11 11 11 11 11 11 11 11 11 11 11 11 12 12 12
23 23 26 27 27 27 25 25 24 23 22 20 20 21 21 22 22 21 20 18 17 16 15 14 12 12 11 10 10 10 10 10 10 10 10 10 10 10 10 10 11 11 11 11
24 23 25 26 27 27 27 26 24 23 21 20 20 19 19 19 20 20 19 18 16 15 14 13 12 11 11 10 10 9 10 9 10 9 9 9 9 9 10 10 10 10 10 10
24 23 24 25 25 25 26 26 25 24 24 22 20 19 19 18 19 19 19 18 16 15 14 13 12 11 10 10 9 9 9 9 9 9 9 9 9 9 9 9 9 9 9 10
24 24 23 24 26 26 26 25 25 23 23 23 22 19 20 19 19 19 19 17 16 14 13 12 11 11 10 10 9 9 9 9 8 8 8 8 8 8 8 8 9 9 9 9
23 22 21 22 22 23 23 24 24 24 24 23 22 20 20 19 19 18 17 16 15 14 13 12 11 10 10 9 9 9 8 8 8 8 8 8 8 8 8 8 8 8 8 8
22 22 21 20 20 20 21 23 24 24 23 22 22 20 19 18 18 17 16 15 14 13 12 11 10 10 9 9 9 8 8 8 8 8 7 7 7 7 7 7 7 8 8 8
22 22 22 22 22 22 22 23 23 23 24 23 23 21 19 18 17 16 15 14 13 13 12 11 10 9 9 9 8 8 8 8 8 7 7 7 7 7 7 7 7 7 7 7
22 21 21 21 23 23 23 23 23 23 24 24 23 21 20 18 17 16 14 13 13 12 11 10 9 9 8 8 8 8 7 7 7 7 7 7 7 7 7 7 7 7 7 7
21 20 20 20 22 22 21 22 22 22 22 22 21 20 19 17 16 15 14 13 12 11 11 10 9 8 8 8 8 7 7 7 7 7 7 7 7 7 7 7 6 6 6 6
19 19 20 20 21 19 21 22 22 21 21 20 19 19 18 17 15 14 14 13 12 11 10 9 9 8 8 8 7 7 7 7 7 7 7 7 6 6 6 6 6 6 6 6
20 19 19 20 19 19 20 20 20 20 18 19 18 17 16 15 14 13 12 12 11 10 9 9 8 8 8 7 7 7 7 7 7 7 7 6 6 6 6 6 6 6 6 6
21 20 19 19 18 18 18 20 20 20 17 18 17 16 16 15 15 13 11 11 10 9 9 8 8 8 7 7 7 7 7 7 7 7 6 6 6 6 6 6 6 6 6 6
19 19 18 19 18 18 18 20 21 18 16 17 16 16 15 15 14 12 11 10 9 9 8 8 8 7 7 7 7 7 7 7 7 7 6 6 6 6 6 6 6 6 6 6
19 18 18 18 17 16 17 18 17 16 17 16 16 15 14 13 12 10 10 9 9 8 8 8 8 7 7 7 7 7 7 7 7 6 6 6 6 6 6 6 6 6 6 6
19 18 18 17 16 16 16 17 16 16 16 16 15 14 13 12 11 10 9 9 8 8 8 8 7 7 7 7 7 7 7 7 6 6 6 6 6 6 6 6 6 6 6 7
19 19 18 17 16 16 16 16 16 15 15 15 14 13 12 11 10 10 9 8 8 8 7 7 7 7 7 7 7 7 7 6 6 6 6 6 6 6 6 6 6 6 6 7
17 18 17 17 16 16 16 15 15 15 15 14 14 13 12 11 10 10 9 8 8 8 7 7 7 7 7 7 7 7 6 6 6 6 6 6 6 6 6 6 6 6 7 6
17 17 16 16 16 16 15 15 15 14 14 14 13 12 12 11 10 9 9 8 8 8 7 7 7 7 7 7 7 7 6 6 6 6 6 6 6 6 6 6 6 6 6 6
Wind_Speed
11 12 11 12 13 13 13 11 11 10 11 11 11 12 14 13 10 10 9 9 11 12 11 10 10 10 10 10 9 9 9 9 7 4 3 2 1 1 0 1 2 1 1 2
8 13 12 10 9 10 10 7 8 8 8 8 8 12 12 10 9 10 10 10 11 11 11 10 9 9 10 10 9 8 8 8 7 5 4 2 2 1 0 2 3 2 2 2
9 6 5 5 5 8 7 3 3 6 7 9 9 9 9 7 6 7 8 9 11 9 9 9 9 10 9 9 9 9 9 8 8 7 4 4 2 1 2 2 2 2 2 2
8 5 5 6 7 7 6 4 6 9 10 8 8 6 6 6 7 8 7 8 9 9 9 9 9 9 9 9 9 10 9 9 9 8 6 6 4 3 3 3 2 2 3 3
5 6 6 6 6 5 5 7 9 10 10 8 7 7 7 10 10 10 9 9 9 10 9 9 9 8 9 8 9 10 10 10 10 9 8 7 6 5 4 4 4 3 2 4
8 6 5 5 4 4 7 9 8 8 8 10 8 8 7 10 10 10 10 11 10 10 10 10 9 8 8 9 9 9 10 10 10 10 10 9 8 7 6 6 5 4 3 4
8 8 7 6 6 5 7 6 3 4 5 6 6 6 5 12 13 14 16 15 13 11 10 9 8 8 8 9 9 9 10 10 10 10 10 9 8 7 8 7 6 5 4 4
7 7 7 7 6 5 8 7 4 4 5 4 4 2 5 10 12 15 16 16 14 12 10 9 9 8 8 8 8 9 9 9 9 9 9 9 8 6 6 7 6 6 5 5
4 5 8 8 7 7 7 6 4 5 6 3 3 3 7 9 12 15 17 16 13 12 11 10 9 8 8 8 8 9 8 8 9 9 8 8 8 8 7 7 6 6 5 5
6 6 8 8 8 10 9 6 4 5 4 4 2 1 2 6 8 10 14 14 13 12 11 10 9 8 8 8 8 8 8 8 8 8 7 7 7 7 7 7 8 7 7 6
7 6 6 7 7 7 7 6 6 6 6 5 2 2 2 5 8 11 12 14 13 13 12 10 9 8 8 8 8 7 8 8 8 8 7 7 7 7 7 7 7 7 7 7
6 6 7 8 6 7 7 7 6 6 8 7 6 3 4 5 4 8 13 14 13 13 12 10 9 8 8 8 8 7 7 8 7 7 7 7 7 7 7 7 7 6 7 7
6 5 6 6 5 6 6 8 8 8 8 8 7 2 4 4 5 8 13 14 13 12 12 11 9 8 7 7 7 7 7 7 7 7 7 7 7 7 7 6 6 6 7 7
4 7 7 8 7 4 7 11 11 9 7 8 6 2 5 5 7 9 12 12 12 12 11 10 9 7 7 6 7 7 7 6 6 6 7 7 6 6 6 6 6 6 7 8
4 8 9 9 9 8 10 11 11 10 9 8 5 2 6 8 10 11 12 12 12 12 11 10 9 7 7 7 7 7 6 6 6 6 6 6 5 6 6 7 7 7 8 9
3 7 11 12 11 11 11 9 8 10 10 8 3 3 8 10 10 11 12 11 10 11 11 10 9 7 7 6 6 6 6 5 5 6 6 6 6 6 6 6 7 7 8 9
6 8 10 11 11 10 8 6 7 6 6 6 4 4 9 9 9 9 11 11 10 10 10 9 8 7 6 6 6 6 5 5 5 5 6 5 5 6 6 7 7 8 8 9
7 8 7 10 9 7 4 4 5 5 9 10 9 9 8 10 9 8 9 11 11 10 10 9 8 8 6 6 6 5 5 4 5 5 6 5 6 6 6 7 7 7 7 7
7 7 6 7 7 6 3 7 8 5 7 9 9 10 10 11 10 8 8 9 10 10 9 8 8 8 6 6 6 5 5 5 5 6 5 5 6 6 6 6 7 6 6 6
6 6 6 8 7 4 5 8 9 5 4 8 7 7 7 5 3 5 9 11 11 10 9 8 8 8 7 6 5 5 5 5 5 5 5 5 6 6 6 6 5 5 5 6
3 5 8 9 6 1 9 12 9 3 3 6 5 4 4 3 5 10 12 12 12 11 9 9 8 7 6 6 5 5 5 6 6 6 6 6 6 6 5 4 4 4 5 6
3 3 3 4 3 2 12 9 7 5 4 5 6 6 8 11 13 12 12 12 12 11 9 9 8 7 6 5 5 6 6 6 6 6 6 6 5 5 6 4 4 5 5 6
3 4 3 3 2 3 6 7 6 5 5 5 6 8 10 11 11 12 12 11 11 10 9 8 8 8 6 5 5 6 6 6 7 7 6 5 5 5 5 3 3 3 3 4
5 6 4 3 3 4 6 7 7 7 6 6 7 8 9 10 11 12 12 11 10 9 8 8 8 8 7 6 6 6 6 6 7 7 6 5 5 5 4 4 4 5 5 4
7 4 3 2 4 5 7 7 6 6 6 6 7 8 9 11 11 12 11 11 10 9 8 7 7 7 7 7 6 6 6 6 6 6 6 5 5 6 6 7 7 8 7 6
5 5 4 3 4 3 3 4 3 3 5 6 7 8 9 9 11 11 11 10 10 9 8 8 8 8 8 7 7 6 6 7 6 5 5 4 5 4 6 7 8 12 9 11
Wind_Direction
209 228 230 222 223 240 253 226 208 186 181 207 199 167 178 190 171 151 149 130 114 101 93 81 73 65 60 52 45 36 32 29 21 22 8 350 350 351 359 86 90 81 269 253
213 233 237 232 222 250 261 220 176 171 176 213 200 180 174 174 167 155 150 132 118 109 96 82 73 63 56 48 40 38 32 28 22 14 349 331 334 331 46 65 58 44 19 342
225 235 220 238 227 250 261 265 183 178 198 218 209 195 167 163 145 135 132 124 120 113 100 88 71 57 52 47 40 35 30 28 21 12 4 354 359 12 45 56 61 36 18 10
222 220 203 229 231 243 248 242 232 209 214 218 213 217 181 168 171 169 151 132 121 112 103 91 79 65 54 48 50 43 36 30 23 22 21 14 13 15 18 15 31 40 32 22
225 197 208 234 233 238 263 251 240 239 236 241 222 222 192 177 193 184 158 140 126 115 106 94 81 71 59 51 54 49 41 34 27 25 25 22 25 23 20 18 19 23 31 29
248 215 223 239 243 234 257 252 256 268 259 245 251 248 181 180 192 176 160 144 134 121 111 101 93 81 67 55 53 50 46 39 32 31 29 26 26 25 25 22 16 14 22 22
237 222 217 229 237 240 261 266 268 272 258 257 274 259 166 170 167 165 161 149 140 128 119 112 99 83 69 57 51 50 50 42 33 32 31 28 26 29 32 22 19 15 17 15
250 230 223 221 238 239 251 248 253 269 264 253 255 229 140 137 137 143 143 136 132 126 120 110 94 82 74 67 57 53 51 46 38 35 33 33 30 32 33 28 22 21 18 14
281 259 249 245 234 249 256 266 260 265 279 276 233 152 114 103 119 130 132 133 133 127 120 111 100 88 76 69 62 58 56 51 44 38 35 38 35 34 33 30 29 25 18 15
289 281 248 243 241 238 250 270 277 277 287 271 251 241 144 148 147 146 142 140 135 129 121 113 106 95 84 78 73 66 64 60 54 48 40 43 40 38 37 38 34 29 20 15
294 287 268 254 251 255 259 261 277 288 298 308 290 156 158 191 183 165 151 143 139 134 126 120 111 103 96 84 74 65 62 61 56 50 46 46 43 40 42 42 37 31 24 22
303 295 282 274 281 291 272 279 281 288 301 309 313 111 125 162 170 157 144 135 131 128 126 121 113 106 95 84 76 71 65 62 59 55 50 49 47 43 43 41 36 32 30 27
328 306 292 289 306 322 306 299 292 287 291 292 302 125 142 134 134 138 130 128 129 129 128 121 114 105 95 87 81 76 70 63 61 60 56 50 49 46 43 42 38 34 34 35
295 280 276 274 272 247 274 282 285 279 279 286 304 97 138 136 120 118 123 130 133 134 128 121 113 104 96 88 81 76 69 65 66 64 62 54 49 46 46 45 44 42 43 44
282 280 281 278 276 249 251 266 277 285 286 289 313 69 138 144 140 139 137 135 137 135 129 123 117 111 104 93 85 79 74 67 66 67 67 63 53 52 52 49 46 45 47 54
308 289 292 288 276 268 269 271 281 286 292 300 326 70 101 111 116 125 132 137 143 138 133 127 122 119 110 103 95 89 84 80 76 72 68 68 66 65 63 61 59 58 57 56
294 293 290 284 285 282 274 293 289 288 329 347 355 90 103 111 121 136 143 146 146 137 134 130 126 118 111 105 101 95 90 85 81 78 73 70 72 74 69 69 67 66 64 63
275 288 285 282 288 275 302 354 3 25 41 48 68 77 90 102 108 119 132 141 140 139 136 132 129 122 117 112 106 100 98 97 92 85 77 73 78 78 71 66 63 64 66 68
232 261 278 281 278 272 334 5 354 353 50 42 70 83 88 97 103 101 109 122 129 131 129 127 127 125 123 116 114 114 110 101 94 87 77 74 80 85 80 72 69 68 71 72
213 228 256 276 284 292 8 347 324 318 73 35 68 92 109 127 121 131 124 121 121 122 124 125 126 127 125 120 122 116 111 106 98 92 86 81 83 83 82 78 74 79 81 82
242 239 249 268 280 35 359 344 342 10 31 27 60 91 108 78 80 126 128 125 125 124 126 128 129 126 121 121 120 113 105 102 99 94 89 83 86 92 90 85 79 82 84 86
324 315 318 315 308 19 3 13 35 29 30 53 71 86 89 94 106 119 124 126 128 129 132 131 127 123 123 124 120 113 106 107 104 99 96 91 85 90 93 90 87 88 94 97
21 14 352 13 38 34 30 40 44 38 52 66 86 98 107 115 121 125 126 127 129 129 130 130 128 126 127 126 121 115 114 113 110 107 103 96 86 78 77 80 89 90 89 95
13 11 3 37 71 40 32 40 48 51 56 74 95 110 119 124 129 131 132 133 133 131 135 139 137 137 137 130 120 116 117 115 118 120 119 113 103 97 83 62 57 57 59 64
336 334 352 5 53 53 37 31 39 56 72 82 98 112 122 130 135 135 136 139 139 137 139 142 139 137 132 127 122 123 121 122 123 124 123 121 114 104 86 67 52 63 52 53
3 10 8 13 22 22 17 24 42 59 86 103 108 113 123 131 135 138 139 140 141 143 146 144 143 139 133 129 125 123 123 122 121 123 127 121 120 125 119 108 84 56 67 66
Height
1476 1476 1472 1467 1465 1465 1461 1462 1465 1462 1458 1462 1467 1473 1477 1478 1480 1484 1488 1493 1498 1503 1507 1509 1511 1512 1511 1511 1511 1512 1513 1513 1514 1516 1517 1519 1520 1522 1523 1524 1525 1526 1527 1529
1474 1473 1465 1459 1458 1459 1457 1460 1463 1461 1458 1462 1466 1470 1472 1475 1480 1484 1488 1493 1499 1504 1507 1510 1512 1512 1512 1512 1512 1512 1513 1513 1514 1515 1516 1517 1519 1520 1521 1522 1522 1523 1524 1525
1474 1467 1460 1460 1461 1462 1459 1462 1464 1466 1462 1462 1467 1474 1475 1478 1482 1487 1491 1495 1500 1504 1508 1511 1513 1514 1514 1514 1513 1513 1513 1513 1514 1514 1515 1516 1517 1518 1519 1520 1520 1521 1521 1522
1470 1463 1462 1463 1463 1462 1466 1460 1461 1463 1468 1471 1471 1489 1486 1485 1488 1492 1495 1499 1502 1506 1509 1512 1513 1515 1515 1515 1514 1514 1513 1513 1513 1514 1514 1515 1515 1516 1517 1518 1518 1518 1519 1519
1466 1462 1463 1465 1462 1461 1464 1458 1459 1460 1464 1471 1474 1486 1492 1488 1493 1494 1496 1500 1504 1508 1510 1513 1515 1516 1516 1516 1515 1514 1514 1514 1514 1513 1513 1514 1514 1515 1515 1515 1516 1516 1517 1517
1462 1459 1460 1461 1459 1460 1460 1460 1461 1462 1468 1485 1481 1485 1494 1490 1491 1493 1496 1501 1505 1509 1511 1513 1515 1516 1517 1517 1516 1515 1515 1514 1514 1513 1513 1513 1513 1513 1514 1514 1514 1514 1514 1514
1466 1461 1459 1460 1462 1462 1462 1471 1488 1495 1497 1495 1484 1484 1487 1480 1480 1486 1493 1499 1504 1509 1512 1514 1516 1517 1517 1517 1517 1516 1515 1515 1515 1514 1514 1513 1513 1513 1513 1513 1512 1512 1512 1512
1477 1475 1463 1460 1463 1467 1467 1473 1493 1507 1506 1501 1493 1491 1483 1474 1478 1485 1492 1499 1505 1509 1512 1515 1517 1518 1519 1518 1518 1517 1517 1516 1516 1515 1515 1514 1513 1513 1513 1512 1512 1512 1511 1511
1480 1480 1464 1459 1459 1462 1468 1469 1472 1483 1488 1497 1495 1487 1483 1479 1482 1488 1493 1499 1504 1508 1512 1515 1517 1519 1520 1520 1519 1519 1518 1518 1517 1517 1516 1515 1514 1513 1513 1512 1512 1511 1511 1510
1471 1479 1466 1460 1459 1459 1461 1464 1471 1480 1493 1501 1499 1498 1496 1491 1489 1491 1493 1498 1504 1508 1512 1516 1518 1520 1521 1521 1521 1520 1520 1519 1519 1518 1517 1516 1515 1514 1514 1513 1512 1512 1511 1510
1470 1477 1471 1464 1464 1465 1463 1465 1467 1471 1474 1488 1500 1505 1490 1489 1487 1489 1494 1498 1503 1508 1513 1516 1519 1521 1522 1522 1522 1522 1522 1521 1520 1520 1519 1518 1517 1516 1516 1515 1514 1513 1512 1511
1472 1474 1477 1470 1463 1460 1461 1464 1468 1479 1478 1474 1483 1499 1485 1486 1486 1488 1494 1499 1504 1509 1513 1517 1519 1521 1523 1523 1523 1523 1523 1523 1522 1521 1521 1520 1519 1518 1518 1517 1516 1515 1514 1513
1477 1480 1488 1484 1481 1474 1472 1468 1466 1468 1472 1477 1484 1495 1484 1484 1486 1490 1495 1501 1506 1510 1514 1517 1520 1522 1524 1524 1525 1525 1525 1524 1524 1523 1522 1522 1521 1520 1520 1519 1518 1517 1517 1516
1481 1482 1489 1498 1493 1487 1484 1475 1470 1470 1475 1478 1477 1484 1486 1487 1490 1494 1499 1504 1507 1511 1515 1518 1521 1523 1524 1525 1526 1526 1526 1526 1526 1525 1524 1524 1523 1523 1522 1521 1521 1520 1519 1518
1480 1483 1481 1480 1477 1477 1477 1474 1470 1469 1468 1472 1473 1478 1483 1487 1491 1495 1500 1505 1508 1512 1516 1519 1522 1524 1525 1526 1527 1527 1528 1528 1527 1527 1527 1526 1525 1525 1524 1524 1523 1522 1522 1521
1481 1485 1483 1481 1474 1472 1472 1469 1468 1469 1466 1466 1469 1479 1480 1486 1491 1497 1502 1506 1509 1513 1517 1520 1523 1525 1526 1527 1528 1529 1529 1529 1529 1529 1528 1528 1528 1527 1527 1526 1525 1525 1524 1524
1485 1486 1488 1486 1476 1474 1479 1473 1471 1471 1470 1471 1477 1481 1483 1489 1494 1499 1503 1507 1511 1514 1517 1521 1523 1525 1527 1528 1529 1530 1530 1531 1531 1531 1530 1530 1530 1530 1529 1529 1528 1528 1527 1526
1489 1490 1489 1485 1483 1493 1482 1471 1471 1474 1476 1476 1480 1483 1487 1492 1497 1502 1505 1508 1512 1515 1518 1521 1524 1526 1528 1529 1530 1531 1532 1532 1533 1533 1533 1533 1532 1532 1532 1531 1531 1531 1531 1530
1486 1489 1490 1488 1489 1487 1480 1477 1476 1479 1484 1484 1485 1489 1493 1496 1500 1505 1508 1510 1513 1516 1519 1522 1524 1527 1528 1530 1531 1532 1533 1534 1535 1535 1535 1535 1535 1534 1534 1534 1534 1534 1534 1534
1483 1487 1492 1490 1494 1497 1492 1482 1478 1479 1492 1491 1491 1493 1496 1497 1500 1508 1510 1512 1515 1518 1521 1523 1525 1527 1529 1531 1532 1534 1535 1536 1536 1537 1537 1537 1537 1537 1537 1538 1538 1538 1538 1538
1488 1489 1491 1490 1493 1493 1491 1484 1479 1491 1500 1495 1494 1496 1498 1499 1502 1507 1510 1513 1516 1519 1522 1524 1526 1529 1530 1532 1534 1535 1536 1537 1538 1539 1539 1540 1540 1540 1541 1541 1541 1541 1542 1542
1490 1492 1493 1492 1497 1504 1495 1489 1494 1499 1497 1496 1497 1499 1500 1502 1505 1508 1512 1515 1517 1520 1523 1526 1528 1530 1532 1534 1535 1536 1537 1539 1540 1540 1541 1542 1543 1543 1544 1544 1544 1545 1545 1545
1489 1493 1494 1497 1503 1500 1498 1498 1498 1498 1498 1499 1500 1502 1503 1505 1508 1511 1514 1517 1520 1522 1525 1527 1529 1531 1533 1535 1536 1538 1539 1540 1541 1542 1543 1544 1545 1546 1546 1547 1547 1548 1548 1549
1492 1492 1494 1497 1500 1500 1500 1499 1500 1500 1500 1501 1502 1504 1506 1508 1511 1513 1516 1519 1522 1524 1527 1529 1531 1533 1535 1537 1538 1539 1541 1542 1543 1544 1545 1546 1547 1548 1549 1550 1550 1551 1551 1552
1499 1496 1497 1499 1500 1501 1502 1502 1502 1502 1503 1504 1505 1506 1508 1510 1512 1515 1518 1521 1523 1526 1529 1531 1533 1535 1537 1538 1540 1541 1542 1543 1545 1546 1547 1549 1550 1551 1552 1552 1552 1553 1554 1554
1500 1500 1501 1503 1504 1504 1505 1505 1504 1504 1505 1506 1507 1508 1510 1512 1514 1517 1520 1522 1525 1527 1530 1532 1535 1537 1539 1540 1542 1543 1544 1546 1547 1548 1550 1551 1553 1554 1554 1555 1555 1556 1557 1557